Tracking 31027 objects as of 19-Jul-2025
HD Live streaming from Space Station
objects crossing your sky now

FENGYUN 1C DEB

Track FENGYUN 1C DEB now!
10-day predictions


NORAD ID: 30331
Int'l Code: 1999-025AAS
Perigee: 837.7 km
Apogee: 980.7 km
Inclination: 99.0 °
Period: 103.0 minutes
Semi major axis: 7280 km
RCS: 0.0259 m2 (small)
Launch date: May 10, 1999
Source: People's Republic of China (PRC)
Launch site: Taiyaun Space Center, China (TSC)

Note: This is SATELLITE DEBRIS
Your satellite tracking list
COSMOS 628
Track 1 satellite(s)




NASA's NSSDC Master Catalog

Two Line Element Set (TLE):
1 30331U 99025AAS 25199.04413997  .00000450  00000-0  33529-3 0  9992
2 30331  98.9736 237.0842 0098158  55.2250   4.4387 13.97614192940563
Source of the keplerian elements: AFSPC